Terminal Aerodrome Forecast
Issued by NWS Lake Charles, LA

Home | Current Version | Previous Version | Text Only | Print | Product List | Glossary On
Versions: 1 2 3 4 5 6 7 8 9 10 11 12 13 14 15 16 17 18 19
000
FTUS44 KLCH 062300
TAFARA
TAF
KARA 062323Z 0700/0724 01006KT P6SM SCT250
     FM072100 02007KT P6SM BKN120=

USA.gov is the U.S. government's official web portal to all federal, state and local government web resources and services.